FW2547 Weather Reports


time (UTC)temp
C
wind
direction
speed
KPH
gust
KPH
rain 1hr
cm
rain 24hr
cm
rain mn
cm
humidity
%
barometer
mb
20260905164518 27 267 16.1 25.7 0.00 0.00 0.00 53 1010.3
20260905163013 27 288 16.1 29.0 0.00 0.00 0.00 55 1010.3
20260905161521 26 304 17.7 29.0 0.00 0.00 0.00 56 1010.3
20260905160008 26 302 19.3 30.6 0.00 0.00 0.00 56 1010.4
20260905154504 26 315 16.1 27.4 0.00 0.00 0.00 57 1010.5
20260905153100 26 315 19.3 29.0 0.00 0.00 0.00 58 1010.5
20260905151558 26 300 19.3 25.7 0.00 0.00 0.00 58 1010.6
20260905150056 25 325 16.1 20.9 0.00 0.00 0.00 59 1010.5
20260905144556 25 327 12.9 17.7 0.00 0.00 0.00 60 1010.5
20260905143052 25 302 9.7 17.7 0.00 0.00 0.00 60 1010.5
20260905141552 25 297 11.3 17.7 0.00 0.00 0.00 61 1010.5
20260905140058 25 332 11.3 17.7 0.00 0.00 0.00 61 1010.4
20260905134557 25 310 6.4 17.7 0.00 0.00 0.00 61 1010.4
20260905133048 24 305 11.3 20.9 0.00 0.00 0.00 63 1010.1
20260905131541 24 322 9.7 17.7 0.00 0.00 0.00 64 1009.9
20260905130036 24 315 9.7 17.7 0.00 0.00 0.00 62 1009.6
20260905124534 24 331 11.3 19.3 0.00 0.00 0.00 63 1009.3
20260905123031 24 319 11.3 19.3 0.00 0.00 0.00 63 1009.1
20260905121529 24 337 9.7 22.5 0.00 0.00 0.00 63 1009.1
20260905120036 25 324 9.7 17.7 0.00 0.00 0.00 61 1009.0
20260905114524 25 295 12.9 22.5 0.00 0.05 0.00 60 1009.0
20260905113023 25 309 14.5 20.9 0.00 0.05 0.00 60 1008.9
20260905111530 25 311 9.7 17.7 0.00 0.05 0.00 62 1008.9
20260905110021 25 329 9.7 16.1 0.00 0.05 0.00 60 1008.9
20260905104516 25 302 8.0 22.5 0.00 0.05 0.00 59 1008.9
20260905103022 25 308 12.9 17.7 0.00 0.05 0.00 59 1008.9
20260905101513 26 257 16.1 25.7 0.00 0.05 0.00 59 1008.8
20260905100011 25 254 11.3 24.1 0.00 0.05 0.00 59 1008.6
20260905094510 25 235 12.9 32.2 0.00 0.05 0.00 60 1008.5
20260905093010 26 263 17.7 29.0 0.00 0.05 0.00 59 1008.2
20260905091507 26 294 19.3 30.6 0.00 0.05 0.00 58 1008.1
20260905090007 26 300 17.7 25.7 0.00 0.05 0.00 58 1008.3
20260905084502 26 304 11.3 20.9 0.00 0.05 0.00 59 1008.3
20260905083100 26 315 14.5 20.9 0.00 0.05 0.00 57 1008.4
20260905081600 26 308 11.3 24.1 0.00 0.05 0.00 57 1008.4
20260905080059 26 306 12.9 20.9 0.00 0.05 0.00 57 1008.4
20260905074556 26 297 19.3 24.1 0.00 0.05 0.00 56 1008.4
20260905073055 26 304 22.5 30.6 0.00 0.05 0.00 56 1008.5
20260905071552 27 309 20.9 27.4 0.00 0.05 0.00 56 1008.6
20260905070055 27 303 20.9 30.6 0.00 0.05 0.00 55 1008.8
20260905064602 27 293 17.7 30.6 0.00 0.05 0.00 51 1008.7
20260905063045 28 306 20.9 30.6 0.00 0.05 0.00 50 1008.6
20260905061543 28 296 16.1 24.1 0.00 0.05 0.00 50 1008.4
20260905060041 28 298 16.1 20.9 0.00 0.05 0.00 49 1008.4
20260905054548 28 298 12.9 25.7 0.00 0.05 0.05 49 1008.3
20260905053038 28 298 16.1 22.5 0.00 0.05 0.05 49 1008.3
20260905051544 28 285 12.9 20.9 0.00 0.05 0.05 48 1008.2
20260905050040 29 279 11.3 16.1 0.00 0.05 0.05 48 1008.1
20260905044538 29 300 9.7 17.7 0.00 0.05 0.05 48 1008.1
20260905043036 29 290 11.3 17.7 0.00 0.05 0.05 47 1008.3
20260905041535 29 284 11.3 17.7 0.00 0.05 0.05 47 1008.3
20260905040036 30 283 9.7 19.3 0.00 0.05 0.05 46 1008.3
20260905034535 30 297 12.9 20.9 0.00 0.05 0.05 44 1008.0
20260905033033 31 268 4.8 17.7 0.00 0.05 0.05 41 1007.8
20260905031536 31 243 3.2 6.4 0.00 0.05 0.05 40 1007.6
20260905030031 31 243 1.6 4.8 0.00 0.05 0.05 40 1007.5
20260905024531 31 244 3.2 6.4 0.00 0.05 0.05 40 1007.3
20260905023031 31 246 3.2 6.4 0.00 0.05 0.05 39 1007.0
20260905021538 31 250 3.2 4.8 0.00 0.05 0.05 39 1007.0
20260905020030 32 252 3.2 9.7 0.00 0.05 0.05 38 1006.9
20260905014538 32 267 3.2 12.9 0.00 0.05 0.05 37 1006.8
20260905013029 32 266 8.0 14.5 0.00 0.05 0.05 37 1006.7
20260905011529 32 284 3.2 8.0 0.00 0.05 0.05 36 1006.7
20260905010031 32 292 3.2 11.3 0.00 0.05 0.05 37 1006.6
20260905004530 32 180 3.2 9.7 0.00 0.05 0.05 37 1006.5
20260905003034 32 229 9.7 17.7 0.00 0.05 0.05 37 1006.5
20260905001522 32 238 3.2 12.9 0.00 0.05 0.05 37 1006.5
20260905000021 32 261 1.6 16.1 0.00 0.05 0.05 39 1006.4
20260904234519 32 286 6.4 16.1 0.00 0.05 0.05 38 1006.3
20260904233023 32 296 12.9 20.9 0.00 0.05 0.05 38 1006.4
20260904231516 32 297 11.3 16.1 0.00 0.05 0.05 37 1006.4
20260904230013 32 187 3.2 16.1 0.00 0.05 0.05 39 1006.4
20260904224510 32 263 3.2 12.9 0.00 0.05 0.05 38 1006.5
20260904223008 32 248 11.3 22.5 0.00 0.05 0.05 39 1006.7
20260904221517 31 325 9.7 22.5 0.00 0.05 0.05 40 1006.8
20260904220004 32 295 14.5 24.1 0.00 0.05 0.05 40 1006.8
20260904214504 31 255 14.5 30.6 0.00 0.05 0.05 42 1006.8
20260904213008 31 283 11.3 17.7 0.00 0.05 0.05 42 1007.1
20260904211502 32 286 6.4 19.3 0.00 0.05 0.05 41 1007.1
20260904204556 31 258 4.8 16.1 0.00 0.05 0.05 43 1007.7
20260904203052 30 298 4.8 22.5 0.00 0.05 0.05 47 1007.9
20260904201552 30 306 4.8 14.5 0.00 0.05 0.05 48 1008.2
20260904200108 29 297 12.9 20.9 0.00 0.05 0.05 49 1008.4
20260904194629 29 349 11.3 19.3 0.00 0.05 0.05 51 1008.6
20260904193045 29 267 9.7 19.3 0.00 0.05 0.05 53 1009.0
20260904191542 28 299 11.3 25.7 0.00 0.05 0.05 53 1009.2
20260904190046 28 271 8.0 20.9 0.00 0.05 0.05 54 1009.3
20260904184536 27 299 19.3 25.7 0.00 0.05 0.05 56 1009.8
20260904183035 27 334 14.5 24.1 0.00 0.05 0.05 58 1009.9
20260904181538 27 319 12.9 19.3 0.00 0.05 0.05 59 1010.2
20260904180039 26 303 11.3 17.7 0.00 0.05 0.05 59 1010.3
20260904174534 26 324 8.0 20.9 0.00 0.05 0.05 62 1010.4
20260904173040 25 298 11.3 20.9 0.00 0.05 0.05 64 1010.7
20260904171539 25 279 16.1 25.7 0.00 0.05 0.05 64 1010.9
20260904170030 25 266 16.1 24.1 0.00 0.05 0.05 65 1011.0